Погода в Ботлихе

Россия / Республика Дагестан     42°40′01″N   46°12′39″E
темп.,
°C
ветер,
м/с
пор.,
м/с
влажн.,
%
обл.,
%
осадки,
мм/ч
давл.,
гПа
погр.,
м
29 июня, ср
ср2900:00+11зсз11917 2.3 101511
03:00+11ююв1193100 2.7 101515
06:00+12с118712 1.5 101591
09:00+16в116952 2.0 1014798
12:00+18св216098 0.8 10141244
15:00+18с2263100 1.2 1014991
18:00+16с2272100 0.3 1015236
21:00+14сз2270100 0.3 101619
30 июня, чт
чт3000:00+12с117792 0.1 101610
03:00+11ю01821 0.1 101610
06:00+13ю01770 0.0 101677
09:00+17в226529 0.0 1014912
12:00+19св216369 0.3 10131203
15:00+19с116548 1.8 1012961
18:00+17с117471 0.8 1012579
21:00+13сз018992 2.2 101314
1 июля, пт
пт100:00+12юз01929 1.1 101310
03:00+11зюз11903 1.1 101210
06:00+13юз118220 0.0 101284
09:00+17ссв117244 1.2 1010635
12:00+16с338063 2.8 1011681
15:00+14ссз2283100 5.4 1012515
18:00+13ссз2288100 1.0 1012121
21:00+11сз3393100 2.4 1014159
2 июля, сб
сб200:00+10зсз2294100 6.5 1015149
03:00+10ссз0194100 10.3 101488
06:00+10зсз1192100 0.8 1015102
09:00+10сз2394100 2.6 1016231
12:00+11ссз2384100 0.7 1017336
15:00+13зсз2368100 0.8 1016947
18:00+11ссз3377100 0.1 1018526
21:00+9ссз228452 0.2 101949
3 июля, вс
вс300:00+7сз228930 0.0 102019
03:00+9зюз118861 0.0 101940
06:00+10ссз118222 0.0 1019221
09:00+13св116791 0.1 10181029
12:00+14ссв2264100 0.2 10191135
15:00+13ссв1263100 0.3 1019744
18:00+13зюз116213 0.0 1019759
21:00+8зсз11791 0.0 102110